Location: Schommer Observatory
(40.5200°N, 74.4500°W)
Time: 00:59:09
(UTC-04:00)

Tiangong 1 - Pass Details

Date: 10 October 2017
Orbit: 293 x 320 km, 42.8° (Epoch: 20 October)

Event Time Altitude Azimuth Distance (km) Brightness Sun altitude
Rises 19:20:22 0° 276° (W) 2,043 6.9 -11.3°
Reaches altitude 10° 19:22:24 10° 282° (WNW) 1,208 5.0 -11.7°
Maximum altitude 19:25:02 48° 359° (N) 416 1.2 -12.2°
Enters shadow 19:26:20 24° 64° (ENE) 699 1.9 -12.5°
